Wind_Speed
6 5 5 5 5 6 4 3 3 3 3 3 3 3 2 1 1 2 2 2 1 0 1 1 2 2 3 3 4 4 5 5 6 6 6 6 7 7 8 8 8 8 8 8 9 9 9 8 9
7 6 6 6 6 6 5 5 5 4 4 5 4 3 3 2 2 2 3 2 1 0 0 1 2 3 3 3 4 5 5 6 6 6 6 6 7 7 8 8 8 8 9 9 8 8 9 9 9
8 8 7 7 7 7 6 5 4 4 4 5 4 3 2 3 3 3 3 2 1 0 0 1 2 3 4 4 5 5 6 6 6 6 6 6 7 8 8 8 9 8 9 9 8 8 9 9 9
9 9 8 8 8 7 6 5 4 4 3 2 3 3 2 3 4 4 3 2 1 1 0 1 2 3 3 4 5 5 6 6 6 6 7 7 8 8 8 8 8 8 8 9 9 9 9 9 9
10 10 10 9 9 8 7 6 5 3 3 2 3 4 4 4 4 4 3 3 2 1 0 1 2 3 3 4 5 5 6 6 6 7 8 8 8 9 9 8 8 9 9 9 9 9 10 10 10
11 11 11 11 10 9 8 6 5 4 3 3 4 5 4 4 5 4 4 3 3 2 0 1 2 2 3 5 5 5 6 7 7 8 8 8 9 9 9 8 8 9 9 9 9 9 9 9 9
12 12 12 11 10 9 8 7 6 4 4 4 4 5 4 5 5 5 4 4 3 2 1 1 2 3 4 5 5 5 6 7 7 8 9 9 10 10 9 9 9 9 8 9 9 9 9 9 9
13 13 12 11 10 9 7 6 6 5 5 4 4 5 6 5 5 5 4 4 3 2 1 0 1 2 3 4 5 5 6 7 8 9 10 10 10 10 9 9 9 9 8 8 9 8 8 8 8
14 14 14 12 11 10 8 6 6 5 4 4 4 5 5 5 5 5 5 4 3 2 1 1 1 2 3 4 5 5 6 7 8 9 10 11 11 10 10 10 9 9 8 8 8 8 8 7 8
15 15 15 14 12 11 9 7 7 6 5 5 5 5 5 5 6 6 6 4 3 2 2 1 1 2 3 4 5 6 7 8 9 10 11 12 12 11 10 10 9 8 8 8 7 7 7 7 7
15 15 15 15 12 10 8 9 8 7 7 5 5 5 5 5 6 7 6 5 4 3 2 1 1 2 3 3 4 6 7 8 9 10 11 12 11 11 10 10 9 8 7 7 6 6 5 5 6
17 17 16 14 12 10 9 9 9 9 8 7 6 5 5 6 6 6 5 5 4 4 3 2 1 1 2 3 4 5 7 9 10 11 11 12 11 11 11 11 10 9 8 7 6 5 4 3 4
17 17 15 14 14 13 10 10 9 8 8 7 6 5 6 6 6 6 5 5 5 4 4 3 2 2 2 3 4 5 7 9 10 11 12 12 12 12 12 12 11 10 9 8 7 5 3 2 2
17 17 15 14 14 12 11 9 8 9 9 8 7 6 6 7 8 7 6 6 5 5 4 4 3 2 3 3 5 6 7 9 10 12 12 13 13 13 13 13 13 12 11 9 7 5 4 1 1
18 17 16 15 14 13 11 10 10 10 10 9 8 7 7 7 8 7 7 6 6 6 5 4 3 3 3 4 5 6 7 9 10 11 13 13 14 14 14 14 14 14 12 11 9 7 5 4 3
18 18 17 16 16 14 13 11 11 11 11 11 9 8 7 7 8 8 7 7 6 7 6 5 4 3 3 4 4 6 8 9 11 12 13 14 14 15 15 15 15 15 14 13 11 9 8 6 5
17 17 17 17 16 15 14 13 12 11 11 11 10 9 9 9 8 9 9 8 8 7 6 6 4 3 4 4 4 6 8 9 11 12 13 14 15 15 15 15 15 16 15 14 13 11 10 9 7
16 16 17 17 16 16 15 14 12 11 11 11 10 9 9 10 9 10 10 9 8 8 7 6 5 4 4 4 4 6 7 9 10 12 13 14 15 15 16 16 16 16 15 15 14 13 12 11 10
17 18 18 18 17 16 16 15 14 13 12 12 12 11 11 11 10 11 12 11 10 9 8 7 5 4 4 4 5 6 7 8 10 12 13 14 15 15 15 16 16 16 16 15 15 14 13 13 12
18 19 19 18 18 18 17 17 16 15 13 13 13 13 12 12 12 12 13 12 11 10 9 7 6 5 4 5 5 6 6 8 9 11 12 13 14 15 15 16 16 16 16 16 15 15 14 13 13
17 19 20 19 18 18 18 17 18 17 15 14 14 14 13 13 14 14 14 13 12 11 9 8 7 6 5 5 5 5 6 7 9 10 11 13 14 14 15 16 16 16 16 16 15 15 15 14 14
17 18 19 19 19 18 18 18 18 18 17 15 15 14 14 14 14 15 14 14 13 12 11 9 8 7 5 5 5 5 5 6 7 9 10 12 13 14 14 15 16 16 16 16 15 15 15 14 14
16 17 18 19 19 18 18 18 17 18 17 16 16 15 15 15 16 16 15 15 14 13 12 10 9 7 6 5 5 4 5 6 7 8 9 10 12 13 13 14 14 15 15 15 15 15 14 14 13
16 16 17 17 18 18 16 17 16 15 15 16 16 16 16 16 17 17 16 16 15 14 12 11 9 7 6 5 5 4 4 5 6 7 8 9 10 11 12 13 14 14 14 14 14 14 14 13 13
15 17 17 17 18 17 16 16 14 14 13 15 16 16 16 17 18 17 17 16 16 15 13 11 10 8 7 6 5 4 4 4 5 6 7 8 9 10 11 12 12 13 13 14 14 14 14 13 13
14 16 16 16 16 16 17 16 14 15 15 15 16 17 18 18 19 18 17 17 17 16 14 12 11 9 8 7 5 4 4 3 4 5 6 7 8 9 10 10 11 12 12 12 13 13 13 13 12
14 15 16 16 15 16 16 15 15 15 15 15 16 16 17 18 19 18 18 17 18 17 15 13 12 10 9 7 6 5 4 3 3 4 5 6 7 8 9 9 10 11 11 11 11 11 12 12 12
15 15 16 17 16 16 15 14 15 16 15 15 17 17 17 18 18 18 18 18 18 17 16 14 13 12 10 9 7 6 5 4 3 2 3 5 6 7 8 8 9 9 10 10 10 10 10 11 11
15 16 17 17 16 15 14 13 14 15 16 16 17 18 17 18 18 19 19 18 18 18 16 15 14 13 11 10 9 7 6 5 4 2 2 3 4 5 6 7 7 8 8 8 9 9 9 10 10
15 16 17 17 17 16 15 13 14 15 17 18 18 19 19 18 19 19 19 19 18 18 17 16 15 13 12 11 10 9 7 5 4 3 2 1 2 3 4 5 5 6 6 6 7 8 8 9 9
Wind_Direction
226 224 228 236 234 241 244 216 219 209 185 205 214 208 212 223 198 201 200 212 213 171 26 10 7 360 350 347 341 334 330 326 324 320 313 311 311 306 301 295 292 281 272 270 267 264 260 259 257
229 230 233 244 243 244 248 240 228 215 215 217 224 227 217 216 195 197 202 212 191 155 58 14 11 351 346 348 345 337 332 328 324 321 317 314 311 308 303 298 296 286 275 269 264 261 263 262 259
232 233 235 249 252 250 254 252 233 221 214 227 228 223 209 195 181 195 204 206 193 280 73 34 8 348 343 345 343 338 335 332 328 326 324 322 319 314 308 301 296 288 280 274 266 266 267 264 260
233 235 240 250 253 249 248 243 231 221 210 234 222 217 214 197 195 204 202 204 223 269 83 31 355 347 347 347 343 341 339 338 337 332 329 326 321 316 311 305 297 288 283 281 276 270 266 265 260
234 237 241 247 252 248 247 241 232 232 230 237 230 219 209 204 207 205 209 212 217 214 243 351 355 356 356 351 346 343 342 341 339 335 331 327 322 317 312 306 298 292 287 282 276 272 270 267 261
235 238 242 247 252 252 240 234 229 223 234 249 240 225 209 203 202 201 207 207 207 202 203 343 344 356 357 351 347 346 347 345 342 339 336 331 327 323 316 310 304 298 291 286 281 278 273 269 265
236 236 241 248 250 244 238 237 234 231 233 242 239 225 207 195 197 196 202 198 189 190 231 308 348 359 356 356 355 351 350 353 352 347 343 338 335 330 323 316 310 304 295 290 286 282 276 270 265
234 237 240 243 245 241 236 232 233 236 225 231 229 206 191 190 185 183 193 184 177 182 206 234 3 3 3 3 2 357 359 0 357 353 350 347 342 338 331 325 317 310 303 296 290 286 281 272 266
238 238 239 243 246 241 239 232 229 225 218 224 215 200 193 192 184 182 184 179 177 189 192 133 38 26 17 8 4 2 4 3 0 358 355 352 349 345 340 332 323 314 308 303 295 291 285 275 266
239 241 242 244 246 246 240 228 220 220 218 222 214 203 204 198 191 191 190 183 189 195 176 135 50 31 17 10 5 6 8 6 4 2 359 356 354 351 348 342 335 328 320 314 304 295 290 276 264
237 239 243 244 241 242 236 229 219 223 219 219 214 203 200 198 194 192 189 182 182 179 173 142 69 37 20 10 8 10 10 9 8 4 1 359 358 358 357 355 350 344 336 327 316 305 291 271 258
238 238 239 241 240 242 239 229 225 222 222 226 223 212 202 196 193 195 196 192 178 169 170 157 112 55 39 26 20 20 18 14 12 8 6 5 5 5 4 3 2 360 355 346 335 326 305 273 251
238 240 239 238 239 237 240 235 230 223 221 222 218 211 204 199 194 193 190 185 175 169 167 164 145 101 69 46 35 31 27 22 19 16 14 14 14 14 14 13 12 9 5 1 354 349 340 297 244
236 236 236 238 237 239 238 236 229 225 222 225 221 215 211 199 191 192 190 182 177 170 167 166 148 114 84 58 43 39 32 27 25 22 22 23 23 24 24 23 22 19 16 14 15 17 19 26 187
234 234 235 233 236 239 235 233 226 219 220 222 218 215 213 198 190 187 184 182 176 169 163 162 146 117 90 66 52 44 37 32 29 27 27 29 30 31 30 29 28 27 27 28 32 38 45 60 87
234 234 234 233 234 235 234 229 226 220 221 216 212 208 205 203 193 187 182 181 177 172 166 162 147 123 96 76 60 49 45 37 35 32 32 33 34 35 34 33 33 33 35 39 43 48 55 66 78
234 234 233 231 231 233 233 230 230 222 218 213 211 208 203 202 200 193 188 185 179 173 169 164 150 126 101 87 68 57 50 42 39 37 38 38 38 38 38 37 37 38 40 44 48 54 59 65 75
230 231 230 228 228 228 228 229 229 220 215 212 213 213 205 205 208 201 192 187 180 176 172 168 157 132 112 96 79 67 54 46 43 42 43 42 42 42 42 41 41 42 44 47 52 56 60 65 74
232 231 231 230 230 228 228 229 229 222 213 210 215 214 207 204 206 203 193 191 184 178 177 172 162 141 119 106 90 74 59 52 48 47 46 43 43 43 44 44 45 47 49 53 57 59 62 67 72
234 234 232 233 231 230 229 229 227 223 217 215 212 211 205 203 205 200 194 192 188 181 179 175 169 152 129 112 96 83 68 58 53 51 47 45 44 45 46 46 47 49 51 55 59 60 62 65 70
235 233 233 234 232 231 233 234 231 226 219 217 212 209 207 203 201 200 198 194 190 185 182 179 172 159 140 120 102 90 76 63 56 53 50 47 47 48 49 49 50 51 53 57 59 60 62 67 70
234 230 231 232 232 228 229 232 228 226 220 217 208 206 205 203 202 201 199 194 191 187 184 182 176 165 148 130 112 93 80 70 61 56 52 49 49 50 51 51 52 52 54 57 59 61 64 68 71
233 231 230 232 230 229 229 229 226 225 222 217 208 205 205 202 200 199 198 194 190 186 185 182 178 171 157 141 125 103 87 77 67 59 54 52 51 50 52 51 53 53 54 57 59 61 64 67 70
229 230 229 230 232 233 232 230 224 222 221 218 213 206 204 200 198 197 197 194 192 189 187 185 184 177 168 156 141 121 97 85 75 62 56 54 52 51 51 52 54 54 54 56 58 60 62 64 65
229 227 228 228 230 231 232 231 222 220 219 218 214 208 204 198 197 195 196 195 193 189 189 188 189 186 179 170 158 143 117 99 85 69 59 54 51 50 51 51 54 55 57 57 58 59 59 60 62
229 225 229 229 230 229 228 227 217 218 219 219 212 206 202 197 196 197 197 197 194 191 191 193 194 193 188 181 171 161 146 122 100 80 65 56 50 48 49 50 52 54 56 57 57 58 57 57 57
223 222 223 227 229 228 228 224 218 216 215 214 208 202 200 198 198 199 200 199 196 194 196 197 197 197 194 189 181 175 169 153 121 88 68 57 50 47 49 51 53 53 55 56 55 54 52 50 51
220 220 220 222 224 226 226 223 217 211 210 207 203 200 198 198 200 200 200 200 198 199 200 201 200 200 199 195 191 185 181 175 155 110 79 60 50 47 48 49 50 50 51 51 50 49 47 45 45
218 219 221 222 223 223 222 219 212 205 204 201 199 200 200 199 200 201 201 200 200 201 203 203 204 203 202 201 200 197 194 192 186 158 108 65 51 47 46 45 48 48 45 43 41 42 42 40 39
216 216 218 220 223 225 223 218 213 204 202 201 200 200 201 200 202 203 203 201 201 203 206 207 206 206 206 207 207 204 203 203 199 191 175 87 45 37 35 32 34 37 35 34 32 30 30 29 29
Height
5891 5892 5892 5893 5894 5893 5892 5892 5892 5893 5893 5893 5893 5894 5895 5896 5897 5899 5897 5895 5895 5895 5895 5894 5894 5893 5893 5892 5891 5890 5889 5888 5887 5886 5885 5883 5882 5881 5879 5878 5877 5875 5874 5874 5873 5872 5872 5872 5872
5890 5891 5892 5892 5891 5891 5892 5891 5892 5892 5892 5892 5893 5894 5895 5895 5895 5895 5895 5895 5895 5895 5894 5894 5893 5893 5892 5892 5891 5890 5889 5888 5886 5885 5884 5882 5881 5880 5878 5877 5875 5874 5873 5872 5871 5871 5870 5870 5870
5889 5889 5891 5891 5890 5890 5891 5890 5890 5891 5891 5892 5893 5893 5894 5895 5895 5894 5894 5894 5894 5894 5894 5893 5893 5893 5892 5891 5890 5889 5888 5887 5885 5884 5883 5881 5880 5878 5877 5875 5873 5872 5871 5870 5869 5869 5868 5868 5868
5888 5889 5890 5890 5888 5889 5889 5889 5890 5890 5890 5891 5892 5893 5893 5894 5894 5894 5893 5893 5894 5893 5893 5893 5893 5892 5891 5891 5890 5889 5887 5886 5885 5883 5882 5880 5879 5877 5875 5873 5872 5870 5869 5868 5867 5867 5866 5866 5866
5887 5888 5888 5888 5887 5888 5888 5888 5889 5889 5889 5890 5891 5891 5892 5893 5893 5893 5893 5893 5893 5893 5893 5892 5892 5892 5891 5890 5889 5888 5887 5886 5884 5883 5881 5879 5877 5875 5873 5872 5870 5868 5867 5866 5865 5865 5865 5864 5864
5885 5886 5886 5886 5886 5886 5887 5887 5888 5888 5888 5889 5890 5890 5891 5891 5891 5891 5892 5892 5892 5892 5892 5892 5892 5892 5891 5890 5889 5888 5886 5885 5883 5882 5880 5878 5876 5874 5872 5870 5868 5867 5865 5864 5864 5863 5863 5862 5862
5883 5884 5884 5884 5884 5885 5886 5886 5887 5887 5887 5888 5889 5889 5889 5890 5891 5890 5891 5891 5891 5892 5892 5892 5892 5891 5891 5890 5888 5887 5886 5885 5883 5881 5879 5877 5875 5872 5870 5868 5866 5865 5864 5862 5861 5861 5860 5860 5860
5880 5882 5882 5882 5883 5883 5884 5885 5885 5886 5887 5887 5888 5888 5888 5889 5890 5890 5890 5890 5891 5891 5891 5891 5891 5891 5890 5889 5888 5887 5886 5884 5882 5880 5878 5876 5873 5871 5869 5866 5865 5863 5862 5860 5859 5859 5858 5858 5858
5878 5880 5879 5880 5881 5882 5883 5884 5884 5885 5886 5886 5887 5888 5888 5888 5889 5889 5889 5890 5890 5891 5891 5891 5891 5891 5890 5889 5888 5887 5886 5884 5882 5880 5877 5875 5872 5870 5867 5865 5863 5861 5859 5858 5857 5856 5856 5856 5856
5876 5877 5878 5879 5880 5880 5881 5882 5883 5884 5884 5885 5886 5887 5887 5888 5888 5889 5889 5890 5890 5890 5891 5891 5891 5890 5890 5889 5888 5887 5885 5884 5882 5879 5877 5874 5871 5868 5866 5863 5861 5859 5858 5856 5855 5855 5854 5854 5854
5872 5874 5875 5876 5877 5878 5879 5880 5881 5882 5883 5884 5885 5886 5886 5887 5887 5888 5889 5889 5890 5890 5890 5891 5891 5890 5890 5889 5888 5887 5885 5883 5881 5879 5876 5874 5871 5868 5865 5863 5860 5858 5856 5855 5854 5853 5852 5852 5852
5870 5871 5872 5874 5875 5876 5877 5878 5880 5881 5882 5883 5884 5884 5885 5886 5886 5887 5888 5889 5889 5890 5890 5891 5891 5890 5889 5889 5888 5887 5885 5883 5881 5879 5876 5873 5870 5867 5865 5862 5859 5857 5855 5854 5852 5851 5850 5850 5850
5867 5868 5870 5872 5872 5874 5875 5876 5878 5879 5880 5881 5882 5883 5884 5885 5885 5886 5887 5888 5889 5890 5890 5891 5891 5890 5889 5889 5888 5887 5885 5884 5881 5879 5876 5873 5870 5867 5864 5861 5859 5857 5855 5853 5851 5850 5849 5849 5849
5864 5866 5868 5869 5870 5871 5873 5874 5876 5877 5879 5880 5881 5882 5883 5883 5884 5885 5887 5887 5888 5889 5890 5891 5891 5890 5890 5889 5888 5887 5886 5884 5882 5879 5876 5873 5870 5867 5864 5862 5859 5857 5854 5852 5851 5850 5849 5849 5848
5861 5863 5865 5866 5868 5869 5871 5873 5874 5876 5877 5878 5879 5880 5882 5883 5883 5885 5886 5887 5888 5889 5890 5890 5891 5890 5890 5889 5889 5887 5886 5884 5882 5880 5877 5874 5871 5868 5865 5863 5860 5857 5855 5853 5851 5850 5849 5848 5848
5858 5860 5862 5864 5865 5866 5870 5871 5872 5874 5875 5876 5878 5879 5881 5882 5883 5884 5885 5886 5888 5889 5890 5890 5891 5890 5890 5890 5889 5888 5886 5885 5883 5880 5878 5875 5872 5869 5866 5864 5861 5858 5856 5854 5852 5851 5850 5849 5849
5855 5857 5859 5861 5862 5864 5867 5868 5870 5871 5873 5874 5876 5877 5879 5881 5882 5883 5885 5886 5887 5888 5889 5890 5891 5891 5890 5890 5889 5888 5887 5885 5883 5881 5879 5876 5873 5870 5868 5865 5863 5860 5858 5856 5854 5852 5851 5851 5850
5852 5854 5856 5858 5860 5862 5864 5866 5867 5869 5871 5872 5874 5875 5877 5879 5881 5883 5884 5885 5887 5888 5889 5890 5891 5891 5890 5890 5890 5889 5888 5886 5884 5882 5880 5877 5875 5872 5870 5867 5865 5862 5860 5858 5856 5854 5853 5852 5852
5849 5851 5853 5855 5857 5859 5861 5863 5865 5867 5868 5870 5872 5873 5876 5877 5880 5882 5883 5885 5886 5888 5889 5890 5891 5891 5891 5890 5890 5889 5888 5887 5886 5884 5881 5879 5876 5874 5872 5869 5867 5864 5862 5860 5859 5857 5856 5855 5854
5846 5848 5849 5851 5853 5856 5858 5859 5861 5864 5866 5868 5870 5871 5874 5876 5878 5880 5882 5884 5885 5887 5889 5890 5891 5891 5891 5891 5890 5890 5889 5888 5887 5885 5883 5881 5878 5876 5874 5871 5869 5867 5865 5863 5861 5860 5859 5858 5857
5842 5844 5846 5848 5850 5852 5855 5857 5858 5860 5863 5865 5867 5869 5872 5874 5876 5879 5881 5883 5885 5886 5888 5889 5890 5891 5891 5891 5891 5891 5890 5889 5888 5886 5884 5882 5880 5878 5876 5874 5871 5869 5867 5866 5864 5863 5861 5861 5860
5839 5841 5843 5845 5847 5849 5852 5854 5856 5857 5860 5862 5865 5867 5870 5872 5874 5877 5880 5882 5884 5886 5887 5889 5890 5891 5891 5891 5891 5891 5891 5890 5889 5888 5886 5884 5882 5880 5878 5876 5874 5872 5870 5868 5867 5866 5865 5864 5863
5836 5838 5840 5842 5844 5846 5848 5851 5854 5855 5857 5860 5863 5865 5867 5870 5872 5875 5878 5880 5882 5885 5887 5888 5890 5891 5891 5892 5892 5892 5891 5891 5890 5889 5887 5886 5884 5882 5880 5878 5876 5875 5873 5871 5870 5869 5868 5867 5866
5834 5836 5837 5838 5841 5844 5846 5847 5851 5853 5855 5857 5860 5862 5865 5868 5870 5873 5876 5879 5881 5884 5886 5888 5889 5890 5891 5892 5892 5892 5892 5891 5891 5890 5889 5887 5886 5884 5882 5880 5879 5877 5875 5874 5872 5871 5870 5870 5869
5831 5833 5835 5835 5837 5841 5843 5844 5849 5851 5852 5854 5857 5860 5863 5865 5868 5871 5875 5877 5880 5882 5885 5887 5889 5890 5891 5891 5892 5892 5892 5892 5891 5891 5890 5889 5887 5886 5884 5882 5881 5879 5878 5876 5875 5874 5873 5872 5871
5827 5830 5833 5834 5835 5838 5839 5841 5847 5848 5850 5851 5854 5857 5860 5863 5866 5870 5873 5875 5878 5881 5883 5886 5888 5889 5890 5891 5892 5892 5892 5892 5892 5891 5891 5890 5888 5887 5886 5884 5883 5881 5880 5878 5877 5876 5875 5874 5873
5824 5826 5829 5831 5832 5834 5836 5839 5843 5844 5846 5849 5852 5855 5858 5861 5864 5868 5871 5874 5876 5879 5882 5884 5886 5888 5890 5891 5891 5892 5892 5892 5892 5892 5891 5890 5889 5888 5887 5886 5884 5883 5882 5881 5879 5878 5877 5876 5875
5822 5824 5826 5828 5829 5831 5834 5836 5840 5841 5843 5846 5849 5853 5856 5859 5862 5865 5868 5871 5874 5877 5880 5883 5885 5887 5888 5890 5891 5891 5892 5892 5893 5892 5892 5891 5890 5889 5888 5887 5886 5885 5884 5883 5881 5880 5879 5878 5877
5819 5821 5822 5825 5827 5829 5831 5836 5837 5838 5841 5844 5847 5850 5853 5856 5859 5863 5866 5869 5872 5875 5878 5881 5883 5885 5887 5889 5890 5891 5891 5892 5892 5892 5892 5891 5891 5890 5889 5888 5887 5886 5885 5884 5883 5882 5881 5879 5878
5816 5818 5820 5822 5824 5826 5828 5835 5834 5836 5838 5841 5844 5847 5850 5853 5857 5860 5863 5866 5870 5873 5876 5879 5881 5883 5885 5887 5888 5890 5890 5891 5892 5892 5892 5892 5891 5891 5890 5889 5888 5887 5886 5885 5884 5883 5882 5880 5879